When you browse on this site, cookies collect data to enhance your experience and personalize the content and advertising you see.
Visit our Privacy Policy to learn more. By continuing to use the site, you agree to this use of cookies and data.
  • In United Kingdom
  • List of Countries
  • For 7 days
  • Water Temperature
  • Satellite Maps
  • Weather Map
  • Weather Widgets
  • user-avatar
    Login

    Hourly Weather Cuiaba

    Today, 21 November, Wednesday

    Time Temperature Precipitation Wind Pressure Humidity
    00:00 +26°C° 0.2 mm 1 mps 740 mmHg 89%
    01:00 +24°C° 0.2 mm 0 mps 740 mmHg 89%
    02:00 +23°C° 0 mm 0 mps 739 mmHg 90%
    03:00 +23°C° 0.1 mm 0 mps 739 mmHg 91%
    04:00 +23°C° 0.1 mm 0 mps 739 mmHg 91%
    05:00 +23°C° 0.1 mm 0 mps 739 mmHg 91%
    06:00 +27°C° 0.3 mm 1 mps 740 mmHg 86%
    07:00 +28°C° 0.3 mm 1 mps 740 mmHg 80%
    08:00 +30°C° 0.3 mm 1 mps 741 mmHg 74%
    09:00 +31°C° 1.5 mm 1 mps 740 mmHg 70%
    10:00 +32°C° 1.5 mm 2 mps 740 mmHg 66%
    11:00 +34°C° 1.5 mm 2 mps 740 mmHg 63%
    12:00 +32°C° 2.8 mm 2 mps 739 mmHg 67%
    13:00 +32°C° 2.8 mm 2 mps 738 mmHg 71%
    14:00 +31°C° 2.8 mm 1 mps 738 mmHg 76%
    15:00 +30°C° 1.3 mm 1 mps 737 mmHg 79%
    16:00 +30°C° 1.3 mm 1 mps 737 mmHg 83%
    17:00 +29°C° 1.3 mm 2 mps 737 mmHg 86%
    18:00 +28°C° 0 mm 2 mps 737 mmHg 87%
    19:00 +27°C° 0 mm 1 mps 738 mmHg 88%
    20:00 +26°C° 0 mm 1 mps 738 mmHg 89%
    21:00 +26°C° 0 mm 2 mps 738 mmHg 89%
    22:00 +26°C° 0 mm 2 mps 739 mmHg 89%
    23:00 +26°C° 0 mm 2 mps 739 mmHg 89%

    Tomorrow, 22 November, Thursday

    Time Temperature Precipitation Wind Pressure Humidity
    00:00 +26°C° 0.7 mm 2 mps 739 mmHg 90%
    01:00 +25°C° 0.7 mm 2 mps 738 mmHg 91%
    02:00 +25°C° 0.7 mm 2 mps 738 mmHg 93%
    03:00 +25°C° 0.1 mm 2 mps 738 mmHg 92%
    04:00 +25°C° 0.1 mm 1 mps 738 mmHg 92%
    05:00 +25°C° 0.1 mm 1 mps 738 mmHg 92%
    06:00 +26°C° 0.1 mm 2 mps 739 mmHg 89%
    07:00 +27°C° 0.1 mm 2 mps 739 mmHg 86%
    08:00 +28°C° 0.1 mm 2 mps 740 mmHg 83%
    09:00 +29°C° 0.8 mm 3 mps 739 mmHg 77%
    10:00 +31°C° 0.8 mm 3 mps 739 mmHg 71%
    11:00 +33°C° 0.8 mm 4 mps 739 mmHg 66%
    12:00 +33°C° 1.7 mm 3 mps 738 mmHg 67%
    13:00 +33°C° 1.7 mm 3 mps 738 mmHg 67%
    14:00 +33°C° 1.7 mm 3 mps 737 mmHg 68%
    15:00 +31°C° 1 mm 2 mps 737 mmHg 72%
    16:00 +31°C° 1 mm 2 mps 737 mmHg 76%
    17:00 +30°C° 1 mm 1 mps 736 mmHg 80%
    18:00 +29°C° 0.6 mm 2 mps 737 mmHg 82%
    19:00 +28°C° 0.6 mm 2 mps 738 mmHg 85%
    20:00 +27°C° 0.6 mm 2 mps 738 mmHg 87%
    21:00 +26°C° 0.6 mm 2 mps 738 mmHg 88%
    22:00 +26°C° 0.6 mm 2 mps 738 mmHg 89%
    23:00 +26°C° 0.6 mm 2 mps 739 mmHg 90%

    Day after tomorrow, 23 November, Friday

    Time Temperature Precipitation Wind Pressure Humidity
    00:00 +25°C° 0 mm 2 mps 738 mmHg 90%
    01:00 +25°C° 0 mm 2 mps 737 mmHg 90%
    02:00 +25°C° 0 mm 2 mps 736 mmHg 91%
    03:00 +25°C° 0.2 mm 2 mps 737 mmHg 91%
    04:00 +24°C° 0.2 mm 2 mps 737 mmHg 92%
    05:00 +24°C° 0.2 mm 1 mps 737 mmHg 93%
    06:00 +25°C° 0.5 mm 1 mps 738 mmHg 92%
    07:00 +25°C° 0.5 mm 1 mps 739 mmHg 91%
    08:00 +26°C° 0.5 mm 1 mps 739 mmHg 91%
    09:00 +27°C° 0.5 mm 1 mps 739 mmHg 88%
    10:00 +27°C° 0.5 mm 2 mps 739 mmHg 85%
    11:00 +28°C° 0.5 mm 2 mps 739 mmHg 82%
    12:00 +29°C° 0.6 mm 2 mps 738 mmHg 79%
    13:00 +29°C° 0.6 mm 2 mps 737 mmHg 75%
    14:00 +30°C° 0.6 mm 2 mps 736 mmHg 72%
    15:00 +30°C° 0.3 mm 2 mps 736 mmHg 74%
    16:00 +29°C° 0.3 mm 2 mps 736 mmHg 77%
    17:00 +29°C° 0.3 mm 1 mps 736 mmHg 79%
    18:00 +28°C° 0 mm 2 mps 737 mmHg 80%
    19:00 +28°C° 0 mm 2 mps 737 mmHg 82%
    20:00 +27°C° 0 mm 2 mps 738 mmHg 83%
    21:00 +27°C° 0 mm 2 mps 738 mmHg 83%
    22:00 +26°C° 0 mm 2 mps 738 mmHg 83%
    23:00 +26°C° 0 mm 2 mps 738 mmHg 83%

    24 November, Saturday

    Time Temperature Precipitation Wind Pressure Humidity
    00:00 +26°C° 0 mm 2 mps 737 mmHg 84%
    01:00 +26°C° 0 mm 2 mps 737 mmHg 84%
    02:00 +26°C° 0 mm 2 mps 736 mmHg 85%
    03:00 +25°C° 0.1 mm 2 mps 737 mmHg 86%
    04:00 +25°C° 0.1 mm 2 mps 737 mmHg 86%
    05:00 +25°C° 0.1 mm 2 mps 737 mmHg 87%
    06:00 +26°C° 0 mm 2 mps 738 mmHg 84%
    07:00 +27°C° 0 mm 3 mps 738 mmHg 80%
    08:00 +28°C° 0 mm 3 mps 739 mmHg 77%
    09:00 +29°C° 0.2 mm 3 mps 739 mmHg 72%
    10:00 +32°C° 0.2 mm 4 mps 738 mmHg 67%
    11:00 +33°C° 0.2 mm 4 mps 738 mmHg 63%
    12:00 +33°C° 0.4 mm 4 mps 737 mmHg 61%
    13:00 +34°C° 0.4 mm 4 mps 736 mmHg 60%
    14:00 +35°C° 0.4 mm 3 mps 735 mmHg 58%
    15:00 +33°C° 1.6 mm 3 mps 735 mmHg 67%
    16:00 +31°C° 1.6 mm 3 mps 735 mmHg 75%
    17:00 +29°C° 1.6 mm 2 mps 735 mmHg 83%
    18:00 +28°C° 0.4 mm 2 mps 736 mmHg 86%
    19:00 +27°C° 0.4 mm 2 mps 736 mmHg 88%
    20:00 +26°C° 0.4 mm 2 mps 737 mmHg 90%
    21:00 +26°C° 0.3 mm 2 mps 737 mmHg 91%
    22:00 +26°C° 0.3 mm 2 mps 738 mmHg 91%
    23:00 +26°C° 0.3 mm 2 mps 738 mmHg 91%

    25 November, Sunday

    Time Temperature Precipitation Wind Pressure Humidity
    00:00 +26°C° 1.1 mm 2 mps 737 mmHg 92%
    01:00 +25°C° 1.1 mm 2 mps 737 mmHg 93%
    02:00 +25°C° 1.1 mm 2 mps 736 mmHg 94%
    03:00 +25°C° 0.5 mm 2 mps 737 mmHg 95%
    04:00 +25°C° 0.5 mm 2 mps 737 mmHg 95%
    05:00 +25°C° 0.5 mm 1 mps 737 mmHg 96%
    06:00 +26°C° 0.5 mm 2 mps 738 mmHg 92%
    07:00 +27°C° 0.5 mm 2 mps 738 mmHg 88%
    08:00 +28°C° 0.5 mm 2 mps 738 mmHg 84%
    09:00 +30°C° 1.2 mm 2 mps 738 mmHg 79%
    10:00 +31°C° 1.2 mm 2 mps 738 mmHg 74%
    11:00 +33°C° 1.2 mm 3 mps 737 mmHg 69%
    12:00 +33°C° 1.1 mm 3 mps 737 mmHg 69%
    13:00 +34°C° 1.1 mm 3 mps 736 mmHg 69%
    14:00 +34°C° 1.1 mm 3 mps 735 mmHg 69%
    15:00 +32°C° 0.8 mm 2 mps 735 mmHg 72%
    16:00 +31°C° 0.8 mm 2 mps 735 mmHg 76%
    17:00 +31°C° 0.8 mm 2 mps 735 mmHg 79%
    18:00 +29°C° 0.8 mm 2 mps 735 mmHg 83%
    19:00 +28°C° 0.8 mm 2 mps 736 mmHg 87%
    20:00 +27°C° 0.8 mm 2 mps 736 mmHg 92%
    21:00 +26°C° 0.9 mm 1 mps 737 mmHg 92%
    22:00 +26°C° 0.9 mm 1 mps 737 mmHg 93%
    23:00 +26°C° 0.9 mm 1 mps 737 mmHg 93%

    26 November, Monday

    Time Temperature Precipitation Wind Pressure Humidity
    00:00 +26°C° 0.3 mm 1 mps 737 mmHg 94%
    01:00 +25°C° 0.3 mm 1 mps 736 mmHg 95%
    02:00 +25°C° 0.3 mm 1 mps 736 mmHg 95%
    03:00 +25°C° 0.1 mm 1 mps 736 mmHg 95%
    04:00 +25°C° 0.1 mm 1 mps 736 mmHg 96%
    05:00 +25°C° 0.1 mm 1 mps 736 mmHg 96%
    06:00 +26°C° 0.6 mm 1 mps 737 mmHg 92%
    07:00 +27°C° 0.6 mm 1 mps 737 mmHg 88%
    08:00 +29°C° 0.6 mm 1 mps 738 mmHg 84%
    09:00 +30°C° 1.2 mm 2 mps 738 mmHg 79%
    10:00 +31°C° 1.2 mm 2 mps 737 mmHg 75%
    11:00 +32°C° 1.2 mm 2 mps 737 mmHg 71%
    12:00 +32°C° 0.6 mm 2 mps 736 mmHg 68%
    13:00 +34°C° 0.6 mm 2 mps 736 mmHg 65%
    14:00 +34°C° 0.6 mm 2 mps 735 mmHg 62%
    15:00 +34°C° 0.5 mm 2 mps 735 mmHg 66%
    16:00 +32°C° 0.5 mm 2 mps 735 mmHg 70%
    17:00 +31°C° 0.5 mm 1 mps 734 mmHg 74%
    18:00 +30°C° 0.1 mm 1 mps 735 mmHg 77%
    19:00 +29°C° 0.1 mm 1 mps 735 mmHg 81%
    20:00 +27°C° 0.1 mm 1 mps 736 mmHg 85%
    21:00 +27°C° 0.3 mm 1 mps 736 mmHg 86%
    22:00 +27°C° 0.3 mm 1 mps 736 mmHg 88%
    23:00 +26°C° 0.3 mm 1 mps 736 mmHg 89%
    Show more